"Pseudo-MPEC" for P10Hnf5

Created 2018 Apr 23 1:18:05 UT using Find_Orb

Click here for an explanation of pseudo-MPECs

 
 Astrometry: 
     P10Hnf5  C2018 04 13#;Astrometryw5Tg4Z=f5K8P9J40KDSpWmt@f\iiQf$_-8@$%UPqF51
     P10Hnf5  C2018 04 13+ig/F!sKy'uVtov;,redacted;?*]_cwlU=q4L!+2DLAj';p'Bk7F51
     P10Hnf5  C2018 04 13p;heG-p^m3[9hRd#%ebk0ifTp'$w#p5Nsee1Wm2d=p1PRK?*ivcUF51
     P10Hnf5  C2018 04 13^T?MAsxxuZHdb3AUE`s;q#GvB,frou1$:8yg6U?25APQTLaNEOCPF51

Station data:
(F51) Pan-STARRS 1, Haleakala  (N20.707235 W156.255910)  US/Hawaii.
   Observers N. Primak, A. Schultz, S. Watters, J. Thiel, T. Goggia. Measurer
   PS1 Science Consortium. 1.8-m Ritchey-Chrétien + CCD.

Orbital elements:  P10Hnf5
   Perihelion 2018 Apr 12.908743 +/- 47.7 TT = 21:48:35 (JD 2458221.408743)
Epoch 2018 Apr 13.0 TT = JDT 2458221.5   Earth MOID: 0.4132   AutoNEOCP
M   0.02326 +/- 17                  (J2000 ecliptic)
n   0.25495515 +/- 0.242            Peri.   24.79020 +/- 70
a   2.46316506 +/- 1.56             Node   178.83800 +/- 50
e   0.4260968 +/- 0.247             Incl.    5.11886 +/- 2.8
P   3.87                   H 23.0   G  0.15   U 11.8  SR
q 1.41361828 +/- 0.379    Q 3.51271184 +/- 68.4
From 4 observations 2018 Apr. 13 (51.8 min); mean residual 0".07
Residuals in arcseconds: 
180413 F51  .03+  .04-    180413 F51  .11-  .10+    
180413 F51  .01+  .01+    180413 F51  .07+  .07-    

Ephemerides (geocentric):
Date (UTC) HH   RA              Dec         delta   r     elong  mag " sig PA
---- -- -- --  ------------   ------------  ------ ------ -----  --- ---- ---
2018 04 23 01  13 48 53.510   -01 22 33.89  .41736 1.4168 168.6 22.5  47d 178
2018 04 23 02  13 48 54.291   -01 22 12.45  .41741 1.4169 168.5 22.5  47d 178
2018 04 23 03  13 48 55.072   -01 21 51.06  .41745 1.4169 168.5 22.5  48d 178
2018 04 23 04  13 48 55.855   -01 21 29.70  .41750 1.4169 168.5 22.5  48d 178
2018 04 23 05  13 48 56.637   -01 21 08.37  .41755 1.4170 168.4 22.5  48d 178
2018 04 23 06  13 48 57.421   -01 20 47.09  .41759 1.4170 168.4 22.5  48d 178
2018 04 23 07  13 48 58.204   -01 20 25.83  .41764 1.4170 168.4 22.5  48d 178
2018 04 23 08  13 48 58.989   -01 20 04.62  .41769 1.4170 168.4 22.5  48d 178
2018 04 23 09  13 48 59.773   -01 19 43.44  .41773 1.4171 168.3 22.5  48d 178
2018 04 23 10  13 49 00.559   -01 19 22.30  .41778 1.4171 168.3 22.5  48d 178
2018 04 23 11  13 49 01.345   -01 19 01.19  .41783 1.4171 168.3 22.5  48d 178
2018 04 23 12  13 49 02.131   -01 18 40.12  .41788 1.4171 168.2 22.5  48d 178
2018 04 23 13  13 49 02.918   -01 18 19.09  .41793 1.4172 168.2 22.5  48d 178
2018 04 23 14  13 49 03.706   -01 17 58.10  .41798 1.4172 168.2 22.5  48d 178
2018 04 23 15  13 49 04.494   -01 17 37.14  .41802 1.4172 168.2 22.5  48d 178
2018 04 23 16  13 49 05.283   -01 17 16.21  .41807 1.4173 168.1 22.5  48d 178
2018 04 23 17  13 49 06.072   -01 16 55.33  .41812 1.4173 168.1 22.5  48d 178
2018 04 23 18  13 49 06.862   -01 16 34.48  .41817 1.4173 168.1 22.5  48d 178
2018 04 23 19  13 49 07.652   -01 16 13.67  .41822 1.4173 168.0 22.5  48d 178
2018 04 23 20  13 49 08.444   -01 15 52.90  .41827 1.4174 168.0 22.5  48d 178
2018 04 23 21  13 49 09.235   -01 15 32.16  .41832 1.4174 168.0 22.5  49d 178
2018 04 23 22  13 49 10.028   -01 15 11.46  .41837 1.4174 167.9 22.5  49d 178
2018 04 23 23  13 49 10.820   -01 14 50.80  .41843 1.4175 167.9 22.5  49d 178
2018 04 24 00  13 49 11.614   -01 14 30.17  .41848 1.4175 167.9 22.5  49d 178
2018 04 24 01  13 49 12.408   -01 14 09.59  .41853 1.4175 167.9 22.5  49d 178
2018 04 24 02  13 49 13.203   -01 13 49.04  .41858 1.4175 167.8 22.5  49d 178
2018 04 24 03  13 49 13.998   -01 13 28.53  .41863 1.4176 167.8 22.5  49d 178
2018 04 24 04  13 49 14.794   -01 13 08.05  .41868 1.4176 167.8 22.5  49d 178
2018 04 24 05  13 49 15.591   -01 12 47.61  .41874 1.4176 167.7 22.5  49d 178
2018 04 24 06  13 49 16.388   -01 12 27.21  .41879 1.4177 167.7 22.5  49d 178
2018 04 24 07  13 49 17.186   -01 12 06.85  .41884 1.4177 167.7 22.5  49d 178
2018 04 24 08  13 49 17.985   -01 11 46.53  .41890 1.4177 167.6 22.5  49d 178
2018 04 24 09  13 49 18.784   -01 11 26.24  .41895 1.4178 167.6 22.5  49d 178
2018 04 24 10  13 49 19.584   -01 11 06.00  .41900 1.4178 167.6 22.5  49d 178
2018 04 24 11  13 49 20.385   -01 10 45.79  .41906 1.4178 167.6 22.5  49d 179
2018 04 24 12  13 49 21.186   -01 10 25.62  .41911 1.4178 167.5 22.5  49d 179
2018 04 24 13  13 49 21.988   -01 10 05.48  .41916 1.4179 167.5 22.5  49d 179
2018 04 24 14  13 49 22.791   -01 09 45.39  .41922 1.4179 167.5 22.5  49d 179
2018 04 24 15  13 49 23.594   -01 09 25.33  .41927 1.4179 167.4 22.5  49d 179
2018 04 24 16  13 49 24.398   -01 09 05.31  .41933 1.4180 167.4 22.5  49d 179
2018 04 24 17  13 49 25.203   -01 08 45.33  .41939 1.4180 167.4 22.5  49d 179
2018 04 24 18  13 49 26.008   -01 08 25.39  .41944 1.4180 167.3 22.5  49d 179
2018 04 24 19  13 49 26.814   -01 08 05.49  .41950 1.4181 167.3 22.5  49d 179
2018 04 24 20  13 49 27.621   -01 07 45.62  .41955 1.4181 167.3 22.5  49d 179
2018 04 24 21  13 49 28.429   -01 07 25.80  .41961 1.4181 167.2 22.5  49d 179
2018 04 24 22  13 49 29.237   -01 07 06.01  .41967 1.4182 167.2 22.5  49d 179
2018 04 24 23  13 49 30.046   -01 06 46.26  .41972 1.4182 167.2 22.5  49d 179
2018 04 25 00  13 49 30.856   -01 06 26.55  .41978 1.4182 167.2 22.5  49d 179